| time (UTC) | temp F | wind direction | speed MPH | gust MPH | rain 1hr in | rain 24hr in | rain mn in | humidity % | barometer mb |
| 20260508204524 | 54 | 60 | 11.0 | 19.0 | 0.00 | 0.00 | 0.00 | 82 | 1016.2 |
| 20260508203023 | 54 | 76 | 10.0 | 20.0 | 0.00 | 0.00 | 0.00 | 83 | 1016.4 |
| 20260508201524 | 54 | 82 | 10.0 | 19.0 | 0.00 | 0.00 | 0.00 | 83 | 1016.3 |
| 20260508200024 | 54 | 81 | 11.0 | 18.0 | 0.00 | 0.00 | 0.00 | 83 | 1016.3 |
| 20260508194530 | 54 | 59 | 11.0 | 19.0 | 0.00 | 0.00 | 0.00 | 83 | 1016.0 |
| 20260508193019 | 54 | 70 | 12.0 | 19.0 | 0.00 | 0.00 | 0.00 | 83 | 1015.7 |
| 20260508191525 | 55 | 89 | 12.0 | 17.0 | 0.00 | 0.00 | 0.00 | 83 | 1015.6 |
| 20260508190017 | 55 | 68 | 11.0 | 17.0 | 0.00 | 0.00 | 0.00 | 82 | 1015.7 |
| 20260508184517 | 55 | 70 | 10.0 | 17.0 | 0.00 | 0.00 | 0.00 | 81 | 1015.6 |
| 20260508183022 | 55 | 52 | 11.0 | 17.0 | 0.00 | 0.00 | 0.00 | 81 | 1015.6 |
| 20260508181515 | 56 | 53 | 9.0 | 17.0 | 0.00 | 0.00 | 0.00 | 80 | 1015.5 |
| 20260508180016 | 56 | 89 | 9.0 | 15.0 | 0.00 | 0.00 | 0.00 | 79 | 1015.6 |
| 20260508174514 | 56 | 35 | 9.0 | 15.0 | 0.00 | 0.00 | 0.00 | 78 | 1015.6 |
| 20260508173015 | 56 | 47 | 10.0 | 16.0 | 0.00 | 0.00 | 0.00 | 78 | 1015.5 |
| 20260508171513 | 57 | 68 | 9.0 | 17.0 | 0.00 | 0.00 | 0.00 | 77 | 1015.5 |
| 20260508170011 | 58 | 49 | 8.0 | 12.0 | 0.00 | 0.00 | 0.00 | 76 | 1015.5 |
| 20260508164512 | 58 | 58 | 8.0 | 13.0 | 0.00 | 0.00 | 0.00 | 75 | 1015.6 |
| 20260508163016 | 59 | 28 | 7.0 | 12.0 | 0.00 | 0.00 | 0.00 | 75 | 1015.7 |
| 20260508161512 | 59 | 53 | 8.0 | 13.0 | 0.00 | 0.00 | 0.00 | 74 | 1015.5 |
| 20260508160009 | 59 | 88 | 9.0 | 14.0 | 0.00 | 0.00 | 0.00 | 74 | 1015.6 |
| 20260508154527 | 59 | 79 | 8.0 | 15.0 | 0.00 | 0.00 | 0.00 | 74 | 1015.6 |
| 20260508153011 | 59 | 69 | 8.0 | 13.0 | 0.00 | 0.00 | 0.00 | 74 | 1015.7 |
| 20260508151512 | 59 | 82 | 7.0 | 12.0 | 0.00 | 0.00 | 0.00 | 73 | 1015.8 |
| 20260508150006 | 59 | 81 | 7.0 | 11.0 | 0.00 | 0.00 | 0.00 | 73 | 1016.0 |
| 20260508144504 | 59 | 70 | 5.0 | 11.0 | 0.00 | 0.00 | 0.00 | 74 | 1016.0 |
| 20260508143006 | 59 | 72 | 6.0 | 11.0 | 0.00 | 0.00 | 0.00 | 73 | 1016.0 |
| 20260508141504 | 59 | 53 | 7.0 | 12.0 | 0.00 | 0.00 | 0.00 | 73 | 1015.9 |
| 20260508140059 | 59 | 70 | 6.0 | 11.0 | 0.00 | 0.00 | 0.00 | 74 | 1015.9 |
| 20260508134623 | 58 | 58 | 6.0 | 10.0 | 0.00 | 0.00 | 0.00 | 75 | 1016.0 |
| 20260508133100 | 58 | 44 | 7.0 | 10.0 | 0.00 | 0.00 | 0.00 | 74 | 1016.0 |
| 20260508131555 | 58 | 58 | 6.0 | 10.0 | 0.00 | 0.00 | 0.00 | 74 | 1015.7 |
| 20260508130055 | 59 | 41 | 8.0 | 11.0 | 0.00 | 0.00 | 0.00 | 75 | 1015.8 |
| 20260508124555 | 58 | 44 | 6.0 | 12.0 | 0.00 | 0.00 | 0.00 | 76 | 1015.8 |
| 20260508123054 | 57 | 30 | 6.0 | 10.0 | 0.00 | 0.00 | 0.00 | 75 | 1015.7 |
| 20260508121550 | 58 | 41 | 6.0 | 10.0 | 0.00 | 0.00 | 0.00 | 76 | 1015.8 |
| 20260508120050 | 58 | 46 | 4.0 | 9.0 | 0.00 | 0.00 | 0.00 | 75 | 1015.9 |
| 20260508114549 | 58 | 42 | 5.0 | 9.0 | 0.00 | 0.00 | 0.00 | 75 | 1015.8 |
| 20260508113101 | 57 | 82 | 4.0 | 8.0 | 0.00 | 0.00 | 0.00 | 75 | 1015.8 |
| 20260508111547 | 58 | 35 | 4.0 | 9.0 | 0.00 | 0.00 | 0.00 | 74 | 1015.9 |
| 20260508110046 | 58 | 16 | 4.0 | 8.0 | 0.00 | 0.00 | 0.00 | 75 | 1015.8 |
| 20260508104544 | 57 | 49 | 5.0 | 10.0 | 0.00 | 0.00 | 0.00 | 75 | 1015.8 |
| 20260508103043 | 57 | 42 | 6.0 | 10.0 | 0.00 | 0.00 | 0.00 | 75 | 1015.7 |
| 20260508101542 | 57 | 53 | 5.0 | 10.0 | 0.00 | 0.00 | 0.00 | 75 | 1015.6 |
| 20260508100053 | 56 | 60 | 6.0 | 9.0 | 0.00 | 0.00 | 0.00 | 75 | 1015.6 |
| 20260508094540 | 56 | 56 | 5.0 | 9.0 | 0.00 | 0.00 | 0.00 | 76 | 1015.5 |
| 20260508093037 | 56 | 58 | 5.0 | 9.0 | 0.00 | 0.00 | 0.00 | 76 | 1015.6 |
| 20260508091535 | 57 | 30 | 6.0 | 11.0 | 0.00 | 0.00 | 0.00 | 77 | 1015.5 |
| 20260508090048 | 56 | 49 | 6.0 | 10.0 | 0.00 | 0.00 | 0.00 | 77 | 1015.5 |
| 20260508084531 | 56 | 86 | 5.0 | 9.0 | 0.00 | 0.00 | 0.00 | 78 | 1015.4 |
| 20260508083030 | 56 | 56 | 6.0 | 10.0 | 0.00 | 0.00 | 0.00 | 78 | 1015.3 |
| 20260508081532 | 56 | 51 | 5.0 | 9.0 | 0.00 | 0.00 | 0.00 | 79 | 1015.4 |
| 20260508080025 | 55 | 89 | 5.0 | 8.0 | 0.00 | 0.00 | 0.00 | 80 | 1015.4 |
| 20260508074525 | 55 | 54 | 5.0 | 8.0 | 0.00 | 0.00 | 0.00 | 83 | 1015.3 |
| 20260508073017 | 54 | 59 | 5.0 | 9.0 | 0.00 | 0.00 | 0.00 | 85 | 1015.2 |
| 20260508071515 | 53 | 37 | 5.0 | 8.0 | 0.00 | 0.00 | 0.00 | 86 | 1015.1 |
| 20260508070013 | 52 | 20 | 4.0 | 7.0 | 0.00 | 0.00 | 0.00 | 86 | 1015.0 |
| 20260508064510 | 52 | 39 | 4.0 | 8.0 | 0.00 | 0.00 | 0.00 | 87 | 1014.9 |
| 20260508063009 | 51 | 35 | 3.0 | 5.0 | 0.00 | 0.00 | 0.00 | 87 | 1015.0 |
| 20260508061502 | 50 | 30 | 2.0 | 4.0 | 0.00 | 0.00 | 0.00 | 87 | 1014.8 |
| 20260508060001 | 49 | 15 | 2.0 | 3.0 | 0.00 | 0.00 | 0.00 | 87 | 1014.8 |
| 20260508054558 | 48 | 8 | 1.0 | 3.0 | 0.00 | 0.00 | 0.00 | 87 | 1014.8 |
| 20260508053059 | 48 | 15 | 2.0 | 4.0 | 0.00 | 0.00 | 0.00 | 86 | 1014.7 |
| 20260508051608 | 48 | 13 | 2.0 | 5.0 | 0.00 | 0.00 | 0.00 | 86 | 1014.6 |
| 20260508050054 | 48 | 23 | 3.0 | 4.0 | 0.00 | 0.00 | 0.00 | 86 | 1014.5 |
| 20260508044551 | 48 | 11 | 4.0 | 5.0 | 0.00 | 0.00 | 0.00 | 86 | 1014.4 |
| 20260508043047 | 48 | 16 | 3.0 | 4.0 | 0.00 | 0.00 | 0.00 | 86 | 1014.4 |
| 20260508041545 | 48 | 37 | 2.0 | 3.0 | 0.00 | 0.00 | 0.00 | 86 | 1014.6 |
| 20260508040051 | 48 | 53 | 1.0 | 2.0 | 0.00 | 0.00 | 0.00 | 85 | 1014.7 |
| 20260508034548 | 48 | 46 | 0.0 | 1.0 | 0.00 | 0.00 | 0.00 | 85 | 1014.7 |
| 20260508033046 | 48 | 117 | 1.0 | 2.0 | 0.00 | 0.00 | 0.00 | 85 | 1014.9 |
| 20260508031546 | 48 | 117 | 0.0 | 1.0 | 0.00 | 0.00 | 0.00 | 85 | 1014.8 |
| 20260508030038 | 48 | 35 | 1.0 | 3.0 | 0.00 | 0.00 | 0.00 | 85 | 1014.8 |
| 20260508024600 | 49 | 46 | 2.0 | 3.0 | 0.00 | 0.00 | 0.00 | 85 | 1014.9 |
| 20260508023039 | 49 | 23 | 2.0 | 3.0 | 0.00 | 0.00 | 0.00 | 84 | 1014.7 |
| 20260508021538 | 49 | 25 | 2.0 | 4.0 | 0.00 | 0.00 | 0.00 | 84 | 1014.8 |
| 20260508020038 | 49 | 40 | 3.0 | 4.0 | 0.00 | 0.00 | 0.00 | 84 | 1014.8 |
| 20260508014537 | 49 | 40 | 2.0 | 4.0 | 0.00 | 0.00 | 0.00 | 84 | 1014.9 |
| 20260508013035 | 49 | 44 | 3.0 | 4.0 | 0.00 | 0.00 | 0.00 | 83 | 1014.8 |
| 20260508011532 | 49 | 20 | 1.0 | 3.0 | 0.00 | 0.00 | 0.00 | 82 | 1015.0 |
| 20260508010033 | 49 | 35 | 2.0 | 4.0 | 0.00 | 0.00 | 0.00 | 82 | 1014.9 |
| 20260508004541 | 49 | 32 | 2.0 | 4.0 | 0.00 | 0.00 | 0.00 | 82 | 1014.9 |
| 20260508003026 | 49 | 25 | 2.0 | 3.0 | 0.00 | 0.00 | 0.00 | 82 | 1015.0 |
| 20260508001533 | 49 | 13 | 2.0 | 3.0 | 0.00 | 0.00 | 0.00 | 81 | 1015.1 |
| 20260508000022 | 49 | 13 | 1.0 | 2.0 | 0.00 | 0.00 | 0.00 | 81 | 1015.3 |
| 20260507234521 | 49 | 306 | 1.0 | 2.0 | 0.00 | 0.00 | 0.00 | 81 | 1015.5 |
| 20260507233018 | 49 | 253 | 1.0 | 2.0 | 0.00 | 0.00 | 0.00 | 80 | 1015.4 |
| 20260507231515 | 50 | 76 | 1.0 | 3.0 | 0.00 | 0.00 | 0.00 | 79 | 1015.4 |
| 20260507230013 | 50 | 51 | 1.0 | 5.0 | 0.00 | 0.00 | 0.00 | 79 | 1015.4 |
| 20260507224514 | 51 | 89 | 3.0 | 5.0 | 0.00 | 0.00 | 0.00 | 79 | 1015.5 |
| 20260507223012 | 51 | 79 | 2.0 | 4.0 | 0.00 | 0.00 | 0.00 | 78 | 1015.5 |
| 20260507221512 | 51 | 58 | 3.0 | 5.0 | 0.00 | 0.00 | 0.00 | 78 | 1015.5 |
| 20260507220012 | 52 | 69 | 3.0 | 6.0 | 0.00 | 0.00 | 0.00 | 78 | 1015.6 |
| 20260507214510 | 52 | 102 | 3.0 | 6.0 | 0.00 | 0.00 | 0.00 | 78 | 1015.6 |
| 20260507213016 | 52 | 82 | 3.0 | 6.0 | 0.00 | 0.00 | 0.00 | 78 | 1015.6 |
| 20260507211508 | 52 | 58 | 3.0 | 7.0 | 0.00 | 0.00 | 0.00 | 79 | 1015.6 |
| 20260507210007 | 52 | 89 | 3.0 | 8.0 | 0.00 | 0.00 | 0.00 | 79 | 1015.5 |